This demonstration page uses our WeatherBlox Daily Observations layout. Learn more.

Left ArrowRight Arrow

34.74481, -87.66753

Hourly Observations for April 26, 2015

Temp ( °F °C ) Dew Point ( °F °C ) Humidity (%) Winds ( mph kmh ) Pressure ( in mb ) Visibility ( mi km ) Precip ( " mm )
12:53 am 00:53 Clear 70 21.1 66 18.9 87 87 W 9 15 29.61 1003 9 14 0.00 0.00
1:53 am 01:53 Clear 69 20.6 65 18.3 87 87 WSW 9 15 29.60 1002 9 14 0.00 0.00
2:53 am 02:53 Clear 68 20 65 18.3 90 90 WNW 7 11 29.61 1003 9 14 0.00 0.00
3:53 am 03:53 Clear 67 19.4 64 17.8 91 91 WNW 6 9 29.62 1003 7 11 0.00 0.00
4:24 am 04:24 Mostly Cloudy with Mist and Fog 65 18.3 63 17.2 93 93 WNW 5 7 29.65 1004 6 10 0.00 0.00
4:34 am 04:34 Mostly Cloudy with Mist and Fog 66 18.9 63 17.2 90 90 WNW 5 7 29.65 1004 6 10 0.00 0.00
4:53 am 04:53 Mostly Cloudy with Mist and Fog 66 18.9 64 17.8 93 93 NW 5 7 29.65 1004 6 10 0.00 0.00
5:30 am 05:30 Partly Cloudy with Mist and Fog 65 18.3 63 17.2 93 93 NW 5 7 29.68 1005 6 10 0.00 0.00
5:53 am 05:53 Clear with Mist and Fog 64 17.8 62 16.7 93 93 NW 5 7 29.66 1005 5 8 0.00 0.00
6:16 am 06:16 Sunny with Mist and Fog 63 17.2 60 15.6 90 90 NW 5 7 29.68 1005 2 3 0.00 0.00
6:25 am 06:25 Sunny with Fog 62 16.7 59 15 90 90 NW 3 6 29.68 1005 0 0 0.00 0.00
6:34 am 06:34 Sunny with Mist and Fog 62 16.7 60 15.6 93 93 NW 5 7 29.71 1006 1 1 0.00 0.00
6:41 am 06:41 Sunny with Mist and Fog 63 17.2 61 16.1 93 93 NNW 3 6 29.71 1006 1 2 0.00 0.00
6:53 am 06:53 Sunny with Mist and Fog 64 17.8 61 16.1 90 90 NNW 3 6 29.69 1005 3 5 0.00 0.00
7:53 am 07:53 Mostly Cloudy 67 19.4 59 15 76 76 VRB 6 9 29.72 1007 10 16 0.00 0.00
8:53 am 08:53 Sunny 68 20 58 14.4 70 70 NNW 7 11 29.73 1007 10 16 0.00 0.00
9:53 am 09:53 Mostly Cloudy 70 21.1 59 15 68 68 NNW 7 11 29.75 1008 10 16 0.00 0.00
10:39 am 10:39 Mostly Cloudy 69 20.6 59 15 70 70 WNW 9 15 29.77 1008 10 16 0.00 0.00
10:46 am 10:46 Cloudy 68 20 58 14.4 70 70 NW 7 11 29.77 1008 10 16 0.00 0.00
10:53 am 10:53 Mostly Cloudy 70 21.1 59 15 68 68 WNW 9 15 29.76 1008 10 16 0.00 0.00
11:53 am 11:53 Mostly Cloudy 71 21.7 59 15 66 66 WNW 8 13 29.76 1008 10 16 0.00 0.00
12:53 pm 12:53 Mostly Cloudy 70 21.1 58 14.4 66 66 NW 10 17 29.76 1008 10 16 0.00 0.00
1:53 pm 13:53 Mostly Cloudy 70 21.1 57 13.9 64 64 NW 7 11 29.76 1008 10 16 0.00 0.00
2:53 pm 14:53 Mostly Cloudy 70 21.1 55 12.8 59 59 N 12 19 29.76 1008 10 16 0.00 0.00
3:53 pm 15:53 Mostly Cloudy 67 19.4 55 12.8 66 66 N 9 15 29.78 1008 10 16 0.00 0.00
4:53 pm 16:53 Cloudy 65 18.3 53 11.7 66 66 NNW 8 13 29.80 1009 10 16 0.00 0.00
5:53 pm 17:53 Partly Cloudy 62 16.7 52 11.1 70 70 N 10 17 29.81 1009 10 16 0.00 0.00
6:53 pm 18:53 Partly Cloudy 59 15 51 10.6 75 75 N 6 9 29.83 1010 10 16 0.00 0.00
7:05 pm 19:05 Mostly Cloudy 59 15 51 10.6 75 75 N 9 15 29.83 1010 10 16 0.00 0.00
7:53 pm 19:53 Cloudy 57 13.9 49 9.4 74 74 N 7 11 29.85 1011 10 16 0.00 0.00
8:53 pm 20:53 Cloudy 56 13.3 47 8.3 72 72 N 10 17 29.86 1011 10 16 0.00 0.00
9:53 pm 21:53 Cloudy 56 13.3 48 8.9 75 75 NE 7 11 29.90 1013 10 16 0.00 0.00
10:16 pm 22:16 Partly Cloudy 54 12.2 47 8.3 77 77 VRB 5 7 29.91 1013 10 16 0.00 0.00
10:53 pm 22:53 Clear 53 11.7 47 8.3 80 80 Calm 29.89 1012 10 16 0.00 0.00
11:53 pm 23:53 Clear 52 11.1 47 8.3 83 83 Calm 29.89 1012 10 16 0.00 0.00

Powered by AerisWeather